Date String (YYYY-MM-DD hh:mm:ss) UTC,Instrument flags,absolute air pressure of the measurement (hPa),sample flow rate (lpm),inlet stack bypass flow (lpm),air temperature of the measurement (°C),ambient temperature measured by the external sensor (°C),aerosol sample conditioner tube jacket temperature (°C),OPC LED temperature (°C),internal box temperature (°C),relative humidity of the measurement (%),span deviation,mass concentration of particles derived from Lorenz-Mie calculation of OPC scattering (μg/m³),mass concentration of particles derived from Lorenz-Mie calculation of OPC scattering (μg/m³),mass concentration of particles derived from Lorenz-Mie calculation of OPC scattering (μg/m³)
DateTimeUTC,F1_M11,P_M11,Q1_M11,Q2_M11,T1_M11,T2_M11,T3_M11,T4_M11,T5_M11,U1_M11,ZSPAN_M11,X2_M11,X0_M11,X1_M11
2023-10-24 21:00:00,SystemResetWarning,0824.7,5.01,000.00,028.7,027.7,000.0,037.0,030.5,19.5,0000.0,0006.04,0023.44,0003.94
2023-10-24 21:01:00,SystemResetWarning,0824.7,5.00,000.00,028.8,027.8,000.0,037.1,030.6,19.6,0000.0,0005.92,0022.79,0003.94
2023-10-24 21:02:00,SystemResetWarning,0824.7,5.00,000.00,028.8,027.9,000.0,037.1,030.6,19.5,0000.0,0005.86,0021.91,0003.94
2023-10-24 21:03:00,SystemResetWarning,0824.7,5.00,000.00,028.9,028.0,000.0,037.1,030.7,19.5,0000.0,0005.87,0021.70,0003.96
2023-10-24 21:04:00,SystemResetWarning,0824.7,4.99,000.00,028.9,027.7,000.0,037.2,030.7,19.5,0000.0,0005.95,0021.12,0003.97
2023-10-24 21:05:00,SystemResetWarning,0824.7,5.00,000.00,028.9,025.8,000.0,037.1,030.6,19.5,0000.0,0005.95,0019.66,0003.98
2023-10-24 21:06:00,SystemResetWarning,0824.7,5.00,000.00,028.8,024.2,000.0,037.0,030.3,19.6,0000.0,0005.89,0019.45,0003.99
2023-10-24 21:07:00,SystemResetWarning,0824.7,5.01,000.00,028.7,024.1,000.0,037.0,030.1,19.7,0000.0,0005.90,0019.54,0004.02
2023-10-24 21:08:00,SystemResetWarning,0824.7,5.01,000.00,028.5,024.5,000.0,037.0,029.9,19.9,0000.0,0005.90,0020.27,0004.06
2023-10-24 21:09:00,SystemResetWarning,0824.7,5.00,000.00,028.5,024.9,000.0,037.0,029.9,20.0,0000.0,0005.94,0020.67,0004.07
2023-10-24 21:10:00,SystemResetWarning,0824.7,4.99,000.00,028.5,025.4,000.0,037.0,030.0,20.0,0000.0,0006.00,0021.59,0004.09
2023-10-24 21:11:00,SystemResetWarning,0824.7,4.99,000.00,028.5,025.8,000.0,037.0,030.0,20.0,0000.0,0006.00,0022.44,0004.10
2023-10-24 21:12:00,SystemResetWarning,0824.7,5.00,000.00,028.5,026.2,000.0,037.0,030.1,20.1,0000.0,0006.09,0022.85,0004.12
2023-10-24 21:13:00,SystemResetWarning,0824.7,5.01,000.00,028.5,026.5,000.0,037.0,030.2,20.1,0000.0,0006.21,0023.69,0004.14
2023-10-24 21:14:00,SystemResetWarning,0824.7,5.01,000.00,028.5,026.8,000.0,037.0,030.2,20.1,0000.0,0006.20,0023.36,0004.15
2023-10-24 21:15:00,SystemResetWarning,0824.7,5.00,000.00,028.6,027.0,000.0,037.0,030.3,20.0,0000.0,0006.18,0024.11,0004.16
2023-10-24 21:16:00,SystemResetWarning,0824.7,4.99,000.00,028.6,027.2,000.0,037.0,030.4,19.9,0000.0,0006.21,0025.51,0004.20
2023-10-24 21:17:00,SystemResetWarning,0824.7,4.99,000.00,028.6,027.4,000.0,037.0,030.4,19.9,0000.0,0006.35,0028.76,0004.22
2023-10-24 21:18:00,SystemResetWarning,0824.7,4.99,000.00,028.7,027.5,000.0,037.0,030.5,19.9,0000.0,0006.40,0029.31,0004.22
2023-10-24 21:19:00,SystemResetWarning,0824.7,5.00,000.00,028.7,027.6,000.0,037.1,030.5,19.9,0000.0,0006.45,0028.44,0004.22
2023-10-24 21:20:00,SystemResetWarning,0824.7,5.01,000.00,028.8,027.8,000.0,037.1,030.6,19.9,0000.0,0006.48,0027.58,0004.23
2023-10-24 21:21:00,SystemResetWarning,0824.7,5.01,000.00,028.8,027.9,000.0,037.1,030.6,19.8,0000.0,0006.41,0026.64,0004.23
2023-10-24 21:22:00,SystemResetWarning,0824.8,5.00,000.00,028.9,028.0,000.0,037.2,030.7,19.9,0000.0,0006.46,0025.92,0004.24
2023-10-24 21:23:00,SystemResetWarning,0824.8,4.98,000.00,028.9,027.3,000.0,037.2,030.7,19.8,0000.0,0006.44,0024.64,0004.26
2023-10-24 21:24:00,SystemResetWarning,0824.8,5.00,000.00,028.8,025.6,000.0,037.1,030.5,19.8,0000.0,0006.40,0023.56,0004.30
2023-10-24 21:25:00,SystemResetWarning,0824.9,5.02,000.00,028.8,025.2,000.0,037.1,030.4,19.9,0000.0,0006.45,0022.58,0004.32
2023-10-24 21:26:00,SystemResetWarning,0824.9,5.00,000.00,028.7,025.4,000.0,037.1,030.2,19.9,0000.0,0006.45,0022.82,0004.33
2023-10-24 21:27:00,SystemResetWarning,0824.9,4.99,000.00,028.7,025.8,000.0,037.1,030.2,19.9,0000.0,0006.41,0023.63,0004.31
2023-10-24 21:28:00,SystemResetWarning,0824.9,5.00,000.00,028.6,026.1,000.0,037.1,030.2,19.9,0000.0,0006.34,0020.83,0004.32
2023-10-24 21:29:00,SystemResetWarning,0825.0,5.01,000.00,028.6,026.4,000.0,037.1,030.3,19.9,0000.0,0006.31,0019.51,0004.31
2023-10-24 21:30:00,SystemResetWarning,0825.0,5.00,000.00,028.7,026.7,000.0,037.1,030.4,19.9,0000.0,0006.32,0019.11,0004.31
2023-10-24 21:31:00,SystemResetWarning,0825.0,5.00,000.00,028.7,027.0,000.0,037.1,030.4,19.9,0000.0,0006.31,0019.04,0004.31
2023-10-24 21:32:00,SystemResetWarning,0825.1,5.00,000.00,028.7,027.2,000.0,037.1,030.4,19.9,0000.0,0006.35,0019.54,0004.33
2023-10-24 21:33:00,SystemResetWarning,0825.1,4.99,000.00,028.8,027.4,000.0,037.2,030.5,19.8,0000.0,0006.37,0020.04,0004.34
2023-10-24 21:34:00,SystemResetWarning,0825.1,5.00,000.00,028.8,027.5,000.0,037.2,030.5,19.8,0000.0,0006.41,0020.78,0004.36
2023-10-24 21:35:00,SystemResetWarning,0825.2,5.00,000.00,028.8,027.6,000.0,037.2,030.6,19.9,0000.0,0006.43,0020.72,0004.36
2023-10-24 21:36:00,SystemResetWarning,0825.2,5.00,000.00,028.9,027.8,000.0,037.2,030.6,19.8,0000.0,0006.42,0020.90,0004.34
2023-10-24 21:37:00,SystemResetWarning,0825.2,5.00,000.00,028.9,026.8,000.0,037.2,030.6,19.8,0000.0,0006.47,0021.92,0004.36
2023-10-24 21:38:00,SystemResetWarning,0825.2,5.00,000.00,028.8,024.8,000.0,037.1,030.3,19.8,0000.0,0006.57,0019.99,0004.41
2023-10-24 21:39:00,SystemResetWarning,0825.2,5.00,000.00,028.7,024.0,000.0,037.0,030.2,19.8,0000.0,0006.70,0019.59,0004.45
2023-10-24 21:40:00,SystemResetWarning,0825.2,5.01,000.00,028.6,024.2,000.0,037.0,030.0,19.9,0000.0,0006.67,0019.31,0004.50
2023-10-24 21:41:00,SystemResetWarning,0825.2,5.00,000.00,028.5,024.7,000.0,037.0,029.9,20.0,0000.0,0006.66,0019.44,0004.52
2023-10-24 21:42:00,SystemResetWarning,0825.2,5.00,000.00,028.4,025.1,000.0,037.0,029.9,20.0,0000.0,0006.65,0019.52,0004.55
2023-10-24 21:43:00,SystemResetWarning,0825.2,4.99,000.00,028.4,025.5,000.0,037.0,030.0,20.1,0000.0,0006.67,0019.44,0004.57
2023-10-24 21:44:00,SystemResetWarning,0825.2,4.99,000.00,028.4,025.9,000.0,037.0,030.0,20.1,0000.0,0006.64,0019.98,0004.57
2023-10-24 21:45:00,SystemResetWarning,0825.2,5.00,000.00,028.4,026.3,000.0,037.0,030.1,20.1,0000.0,0006.63,0019.62,0004.58
2023-10-24 21:46:00,SystemResetWarning,0825.2,5.00,000.00,028.5,026.6,000.0,037.0,030.1,20.0,0000.0,0006.59,0020.53,0004.59
2023-10-24 21:47:00,SystemResetWarning,0825.3,5.01,000.00,028.5,026.8,000.0,037.0,030.2,20.1,0000.0,0006.65,0021.58,0004.60
2023-10-24 21:48:00,SystemResetWarning,0825.3,5.01,000.00,028.5,027.0,000.0,037.0,030.2,20.1,0000.0,0006.65,0021.72,0004.63
2023-10-24 21:49:00,SystemResetWarning,0825.3,5.00,000.00,028.6,027.2,000.0,037.0,030.3,20.1,0000.0,0006.65,0021.66,0004.64
2023-10-24 21:50:00,SystemResetWarning,0825.3,5.00,000.00,028.6,027.3,000.0,037.0,030.3,20.0,0000.0,0006.65,0021.06,0004.64
2023-10-24 21:51:00,SystemResetWarning,0825.3,5.00,000.00,028.6,027.5,000.0,037.0,030.4,19.9,0000.0,0006.64,0021.24,0004.63
2023-10-24 21:52:00,SystemResetWarning,0825.3,4.99,000.00,028.7,027.6,000.0,037.0,030.4,19.9,0000.0,0006.69,0022.77,0004.60
2023-10-24 21:53:00,SystemResetWarning,0825.3,5.00,000.00,028.7,027.6,000.0,037.0,030.5,19.9,0000.0,0006.72,0023.31,0004.60
2023-10-24 21:54:00,SystemResetWarning,0825.4,5.00,000.00,028.8,027.7,000.0,037.1,030.5,19.8,0000.0,0006.76,0025.40,0004.61
2023-10-24 21:55:00,SystemResetWarning,0825.3,5.00,000.00,028.8,027.8,000.0,037.1,030.6,19.6,0000.0,0006.83,0025.37,0004.62
2023-10-24 21:56:00,SystemResetWarning,0825.3,5.00,000.00,028.8,027.8,000.0,037.1,030.6,19.8,0000.0,0006.88,0025.51,0004.64
2023-10-24 21:57:00,SystemResetWarning,0825.3,5.00,000.00,028.8,026.3,000.0,037.1,030.5,19.8,0000.0,0006.95,0025.40,0004.66
2023-10-24 21:58:00,SystemResetWarning,0825.3,5.01,000.00,028.8,025.1,000.0,037.0,030.4,19.8,0000.0,0007.02,0025.08,0004.69
2023-10-24 21:59:00,SystemResetWarning,0825.3,5.02,000.00,028.7,025.0,000.0,037.0,030.2,19.8,0000.0,0007.04,0025.16,0004.70
